COSMOS 1275 DEB, 12654

Orbit data source: Space-Track

COSMOS 1275 DEB, 12654 is space debris in LEO originally from a launch on Thu, 04 Jun 1981 UTC launched from the Plesetsk Missile And Space Complex (PKMTR). Debris objects in space refer to the collection of defunct objects orbiting the Earth. Examples of debris include non-operational satellites, rocket bodies, and fragments generated from explosions, collisions, or faulty payload assembly.

Loading next visibility...
Identifier
12654, 1981-053J
Orbit
LEO
Country
Flag of CISCIS
Related business
Manufacturer
Unknown
Mission
Spacecraft
Bus & Motor
Unknown
Mass
Unknown
Launch date (UTC)
1981-06-04 (45 years ago)
Launch vehicle
Unknown
Launch site
Plesetsk Missile And Space Complex (PKMTR)
Object type
Payload
Rocket body
Debris
Shape & HBR
Unknown shape, 0.2 m
Radar Cross Section
Medium (>0.1 m² and <1 m²)

Expand to show TLE details & history
Last TLE update: 8 hours ago

TLE from 8 hours ago
0 COSMOS 1275 DEB
1 12654U 81053J   26255.20629098  .00000550  00000-0  30471-3 0  9999
2 12654  82.9836 152.1110 0045992   0.5384 154.2227 14.09112246300350
Epoch: 2026-09-12T04:57Z
TLE epoch observation values (Epoch: 2026-09-12T04:57:03.540Z)
Latitude
24.8381°
Longitude
-96.62102°
Altitude
895.474 km
Speed
7.391 km/s
True Right ascension
21h 55m 26s
True Declination
24° 42' 35"
Sunlit
Object was in full shadow at epoch
Visualization orbit readout
Latitude
Unknown
Longitude
Unknown
Altitude
Unknown
Speed
Unknown
Apparent Right ascension
Unknown
Apparent Declination
Unknown
Sunlit
N/A
Visualization observer readout
Local Sidereal Time
05:38:36
Azimuth
Unknown
Elevation
Unknown
Doppler factor
Unknown
Orbital elements
Apogee altitude
892.799 km
Perigee altitude
826.224 km
Semi-major axis
7,237.648 km
Eccentricity
0.0046
Inclination
82.9836°
RAAN
152.111°
Arg. of periapsis
0.5384°
True anomaly
154.45071°
Mean anomaly
154.2227°
Eccentric anomaly
154.33682°
Mean motion
3.5249 °/min
Orbital period
102.13 mins
BSTAR
0.00030471
Loading maneuver chart data...
Computing Atmospheric mass density...
Loading historical data...
Loading historical data...
Loading historical data...
Loading historical data...
Loading historical data...
Loading historical data...
Loading historical data...

Documentation

Showing up to 5 results
|